When you browse on this site, cookies collect data to enhance your experience and personalize the content and advertising you see.
Visit our Privacy Policy to learn more. By continuing to use the site, you agree to this use of cookies and data.
  • In Spain
  • List of Countries
  • For 7 days
  • Water Temperature
  • Satellite Maps
  • Weather Map
  • Weather Widgets
  • user-avatar
    Login

    Hourly Weather Hail

    Today, 21 May, Tuesday

    Time Temperature Precipitation Wind Pressure Humidity
    00:00 +29°C° 0 mm 2 mps 661 mmHg 19%
    01:00 +28°C° 0 mm 2 mps 661 mmHg 20%
    02:00 +28°C° 0 mm 2 mps 661 mmHg 21%
    03:00 +27°C° 0 mm 2 mps 661 mmHg 21%
    04:00 +27°C° 0 mm 1 mps 661 mmHg 21%
    05:00 +26°C° 0 mm 1 mps 661 mmHg 21%
    06:00 +26°C° 0 mm 1 mps 661 mmHg 22%
    07:00 +28°C° 0 mm 1 mps 662 mmHg 20%
    08:00 +29°C° 0 mm 1 mps 662 mmHg 17%
    09:00 +31°C° 0 mm 2 mps 663 mmHg 15%
    10:00 +32°C° 0 mm 2 mps 663 mmHg 13%
    11:00 +34°C° 0 mm 2 mps 663 mmHg 12%
    12:00 +35°C° 0 mm 2 mps 664 mmHg 11%
    13:00 +35°C° 0 mm 2 mps 663 mmHg 10%
    14:00 +35°C° 0 mm 3 mps 663 mmHg 10%
    15:00 +36°C° 0 mm 4 mps 663 mmHg 10%
    16:00 +35°C° 0 mm 5 mps 663 mmHg 10%
    17:00 +35°C° 0 mm 6 mps 663 mmHg 10%
    18:00 +35°C° 0 mm 6 mps 663 mmHg 10%
    19:00 +34°C° 0 mm 6 mps 663 mmHg 11%
    20:00 +33°C° 0 mm 5 mps 663 mmHg 12%
    21:00 +32°C° 0 mm 5 mps 663 mmHg 12%
    22:00 +30°C° 0 mm 5 mps 663 mmHg 13%
    23:00 +30°C° 0 mm 4 mps 663 mmHg 14%

    Tomorrow, 22 May, Wednesday

    Time Temperature Precipitation Wind Pressure Humidity
    00:00 +29°C° 0 mm 4 mps 664 mmHg 15%
    01:00 +28°C° 0 mm 4 mps 663 mmHg 17%
    02:00 +28°C° 0 mm 4 mps 663 mmHg 18%
    03:00 +27°C° 0 mm 4 mps 663 mmHg 19%
    04:00 +27°C° 0 mm 4 mps 663 mmHg 20%
    05:00 +26°C° 0 mm 3 mps 663 mmHg 21%
    06:00 +26°C° 0 mm 3 mps 663 mmHg 22%
    07:00 +27°C° 0 mm 4 mps 664 mmHg 20%
    08:00 +29°C° 0 mm 4 mps 665 mmHg 17%
    09:00 +32°C° 0 mm 5 mps 665 mmHg 15%
    10:00 +33°C° 0 mm 4 mps 665 mmHg 13%
    11:00 +34°C° 0 mm 4 mps 665 mmHg 12%
    12:00 +34°C° 0 mm 3 mps 665 mmHg 11%
    13:00 +35°C° 0 mm 3 mps 665 mmHg 10%
    14:00 +35°C° 0 mm 3 mps 665 mmHg 9%
    15:00 +36°C° 0 mm 4 mps 665 mmHg 9%
    16:00 +35°C° 0 mm 4 mps 664 mmHg 9%
    17:00 +35°C° 0 mm 4 mps 664 mmHg 9%
    18:00 +35°C° 0 mm 5 mps 664 mmHg 9%
    19:00 +34°C° 0 mm 4 mps 664 mmHg 11%
    20:00 +33°C° 0 mm 3 mps 664 mmHg 12%
    21:00 +33°C° 0 mm 3 mps 664 mmHg 13%
    22:00 +31°C° 0 mm 2 mps 664 mmHg 14%
    23:00 +30°C° 0 mm 2 mps 664 mmHg 14%

    Day after tomorrow, 23 May, Thursday

    Time Temperature Precipitation Wind Pressure Humidity
    00:00 +29°C° 0 mm 1 mps 664 mmHg 15%
    01:00 +29°C° 0 mm 1 mps 663 mmHg 16%
    02:00 +28°C° 0 mm 1 mps 663 mmHg 16%
    03:00 +28°C° 0 mm 2 mps 663 mmHg 16%
    04:00 +27°C° 0 mm 2 mps 663 mmHg 17%
    05:00 +27°C° 0 mm 1 mps 663 mmHg 18%
    06:00 +27°C° 0 mm 1 mps 663 mmHg 18%
    07:00 +28°C° 0 mm 2 mps 663 mmHg 16%
    08:00 +30°C° 0 mm 2 mps 664 mmHg 14%
    09:00 +33°C° 0 mm 3 mps 665 mmHg 12%
    10:00 +34°C° 0 mm 3 mps 665 mmHg 12%
    11:00 +35°C° 0 mm 3 mps 665 mmHg 11%
    12:00 +35°C° 0 mm 3 mps 665 mmHg 10%
    13:00 +36°C° 0 mm 4 mps 665 mmHg 10%
    14:00 +36°C° 0 mm 4 mps 664 mmHg 9%
    15:00 +37°C° 0 mm 4 mps 664 mmHg 9%
    16:00 +37°C° 0 mm 5 mps 663 mmHg 9%
    17:00 +36°C° 0 mm 5 mps 663 mmHg 9%
    18:00 +36°C° 0 mm 6 mps 663 mmHg 9%
    19:00 +35°C° 0 mm 5 mps 663 mmHg 10%
    20:00 +34°C° 0 mm 4 mps 663 mmHg 11%
    21:00 +33°C° 0 mm 3 mps 664 mmHg 12%
    22:00 +33°C° 0 mm 3 mps 663 mmHg 13%
    23:00 +31°C° 0 mm 3 mps 663 mmHg 14%

    24 May, Friday

    Time Temperature Precipitation Wind Pressure Humidity
    00:00 +30°C° 0 mm 3 mps 663 mmHg 15%
    01:00 +29°C° 0 mm 3 mps 663 mmHg 16%
    02:00 +29°C° 0 mm 3 mps 663 mmHg 18%
    03:00 +28°C° 0 mm 3 mps 662 mmHg 19%
    04:00 +27°C° 0 mm 3 mps 663 mmHg 20%
    05:00 +27°C° 0 mm 2 mps 663 mmHg 21%
    06:00 +27°C° 0 mm 2 mps 663 mmHg 22%
    07:00 +28°C° 0 mm 3 mps 663 mmHg 20%
    08:00 +30°C° 0 mm 4 mps 664 mmHg 17%
    09:00 +33°C° 0 mm 5 mps 665 mmHg 15%
    10:00 +34°C° 0 mm 5 mps 665 mmHg 14%
    11:00 +35°C° 0 mm 4 mps 665 mmHg 13%
    12:00 +36°C° 0 mm 4 mps 665 mmHg 11%
    13:00 +36°C° 0 mm 3 mps 665 mmHg 11%
    14:00 +37°C° 0 mm 3 mps 664 mmHg 10%
    15:00 +37°C° 0 mm 3 mps 664 mmHg 9%
    16:00 +37°C° 0 mm 3 mps 664 mmHg 9%
    17:00 +37°C° 0 mm 4 mps 664 mmHg 9%
    18:00 +37°C° 0 mm 4 mps 663 mmHg 9%
    19:00 +36°C° 0 mm 4 mps 664 mmHg 10%
    20:00 +35°C° 0 mm 4 mps 664 mmHg 11%
    21:00 +34°C° 0 mm 4 mps 664 mmHg 13%
    22:00 +33°C° 0 mm 4 mps 664 mmHg 14%
    23:00 +31°C° 0 mm 3 mps 663 mmHg 15%

    25 May, Saturday

    Time Temperature Precipitation Wind Pressure Humidity
    00:00 +31°C° 0 mm 3 mps 663 mmHg 16%
    01:00 +30°C° 0 mm 3 mps 663 mmHg 16%
    02:00 +30°C° 0 mm 3 mps 663 mmHg 17%
    03:00 +29°C° 0 mm 2 mps 662 mmHg 18%
    04:00 +29°C° 0 mm 2 mps 663 mmHg 18%
    05:00 +28°C° 0 mm 2 mps 663 mmHg 18%
    06:00 +28°C° 0 mm 1 mps 663 mmHg 18%
    07:00 +30°C° 0 mm 2 mps 664 mmHg 16%
    08:00 +33°C° 0 mm 3 mps 664 mmHg 14%
    09:00 +35°C° 0 mm 4 mps 665 mmHg 11%
    10:00 +36°C° 0 mm 3 mps 665 mmHg 10%
    11:00 +36°C° 0 mm 3 mps 665 mmHg 9%
    12:00 +37°C° 0 mm 2 mps 665 mmHg 8%
    13:00 +37°C° 0 mm 2 mps 664 mmHg 8%
    14:00 +38°C° 0 mm 2 mps 664 mmHg 7%
    15:00 +38°C° 0 mm 2 mps 664 mmHg 7%
    16:00 +38°C° 0 mm 3 mps 663 mmHg 7%
    17:00 +38°C° 0 mm 3 mps 663 mmHg 7%
    18:00 +38°C° 0 mm 4 mps 663 mmHg 7%
    19:00 +37°C° 0 mm 4 mps 663 mmHg 7%
    20:00 +36°C° 0 mm 4 mps 663 mmHg 8%
    21:00 +35°C° 0 mm 4 mps 663 mmHg 9%
    22:00 +34°C° 0 mm 4 mps 663 mmHg 9%
    23:00 +34°C° 0 mm 4 mps 662 mmHg 10%

    26 May, Sunday

    Time Temperature Precipitation Wind Pressure Humidity
    00:00 +33°C° 0 mm 4 mps 662 mmHg 10%
    01:00 +31°C° 0 mm 3 mps 662 mmHg 11%
    02:00 +30°C° 0 mm 2 mps 661 mmHg 11%
    03:00 +30°C° 0 mm 2 mps 661 mmHg 11%
    04:00 +29°C° 0 mm 2 mps 661 mmHg 12%
    05:00 +29°C° 0 mm 1 mps 661 mmHg 12%
    06:00 +29°C° 0 mm 1 mps 662 mmHg 13%
    07:00 +31°C° 0 mm 1 mps 662 mmHg 11%
    08:00 +33°C° 0 mm 1 mps 663 mmHg 9%
    09:00 +36°C° 0 mm 2 mps 664 mmHg 8%
    10:00 +36°C° 0 mm 2 mps 663 mmHg 7%
    11:00 +36°C° 0 mm 1 mps 663 mmHg 7%
    12:00 +37°C° 0 mm 1 mps 663 mmHg 6%
    13:00 +37°C° 0 mm 1 mps 663 mmHg 6%
    14:00 +37°C° 0 mm 1 mps 662 mmHg 6%
    15:00 +39°C° 0 mm 1 mps 662 mmHg 6%
    16:00 +39°C° 0 mm 1 mps 662 mmHg 6%
    17:00 +39°C° 0 mm 1 mps 662 mmHg 6%
    18:00 +39°C° 0 mm 1 mps 662 mmHg 6%
    19:00 +38°C° 0 mm 2 mps 662 mmHg 7%
    20:00 +37°C° 0 mm 2 mps 662 mmHg 7%
    21:00 +36°C° 0 mm 2 mps 662 mmHg 8%
    22:00 +35°C° 0 mm 2 mps 661 mmHg 8%
    23:00 +35°C° 0 mm 2 mps 661 mmHg 9%
    Show more